Volver al catálogo

STARLINK-35791

ActivoComunicacionesVLEO
NORAD 66896·PAYLOAD·🇺🇸 United States

Lanzado Dec 4, 2025 desde Vandenberg Space Force Base

Loading…

Próximos Pases (próximas 24 horas)

TLE

ActualizadoSource: CelesTrak SupGP

Época: Sep 14, 2026, 22:43 UTC

1 66896C 25283U   26257.94701389  .00014182  00000+0  41888-3 0  2572
2 66896  53.1569 223.3118 0001576  97.3949 321.7772 15.34392244    13

Sigue STARLINK-35791 en tiempo real con AllMySat

Download on the App Store